Weather History for Farmington, NM

Change the Weather History Date:

Monday, July 8, 2013

  Actual Average Record
Temperature  
Mean Temperature 82 °F -  
Max Temperature 98 °F 91 °F 100 °F (1989)
Min Temperature 66 °F 58 °F 46 °F (1993)
Cooling Degree Days 17    
Growing Degree Days 32 (Base 50)    
Moisture  
Dew Point 44 °F    
Average Humidity 26    
Maximum Humidity 52    
Minimum Humidity 7    
Precipitation  
Precipitation 0.00 in - - ()
Sea Level Pressure  
Sea Level Pressure 29.95 in    
Wind  
Wind Speed 9 mph (SW)    
Max Wind Speed 20 mph    
Max Gust Speed 29 mph    
Visibility 10 miles    
Events      
Averages and records for this station are not official NWS values.
T = Trace of Precipitation, MM = Missing Value Source: NWS Daily Summary

Daily Weather History Graph

Daily Weather History Graph

Search for Another Location

Airport:

Trip Planner

Search our weather history database for the weather conditions in past years. The results will help you decide how hot, cold, wet, or windy it might be!

Date:

Astronomy

Jul. 08, 2013 Rise Set
Actual Time 6:01 AM MDT 8:34 PM MDT
Civil Twilight 5:31 AM MDT 9:04 PM MDT
Nautical Twilight 4:53 AM MDT 9:41 PM MDT
Astronomical Twilight 4:12 AM MDT 10:23 PM MDT
Moon 6:31 AM MDT (7/8) 8:41 PM MDT (7/8)
Length of Visible Light 15h 33m
Length of Day
14h 32m
New Moon, 0% of the Moon is Illuminated
Jul 8
New Moon
Jul 15
First Quarter
Jul 22
Full
Jul 29
Last Quarter
Aug 6
New

Hourly Weather History & Observations

Time (MDT) Temp. Dew Point Humidity Pressure Visibility Wind Dir Wind Speed Gust Speed Precip Events Conditions
12:53 AM 77.0 °F 46.9 °F 34% 29.93 in 10.0 mi SW 16.1 mph 21.9 mph N/A   Scattered Clouds
1:53 AM 73.9 °F 48.0 °F 40% 29.93 in 10.0 mi South 8.1 mph - N/A   Clear
2:53 AM 77.0 °F 46.9 °F 34% 29.90 in 10.0 mi South 9.2 mph 19.6 mph N/A   Clear
3:53 AM 73.0 °F 48.9 °F 42% 29.94 in 10.0 mi North 9.2 mph - N/A   Clear
4:53 AM 69.1 °F 48.0 °F 47% 29.95 in 10.0 mi North 8.1 mph - N/A   Clear
5:53 AM 66.0 °F 48.0 °F 52% 29.97 in 10.0 mi ENE 6.9 mph - N/A   Clear
6:53 AM 70.0 °F 48.9 °F 47% 29.98 in 10.0 mi ESE 9.2 mph - N/A   Clear
7:53 AM 72.0 °F 50.0 °F 46% 30.00 in 10.0 mi NE 3.5 mph - N/A   Clear
8:53 AM 77.0 °F 50.0 °F 39% 30.02 in 10.0 mi ESE 4.6 mph - N/A   Clear
9:53 AM 82.0 °F 48.0 °F 30% 30.01 in 10.0 mi East 5.8 mph - N/A   Clear
10:53 AM 84.0 °F 46.9 °F 27% 30.00 in 10.0 mi WNW 3.5 mph - N/A   Clear
11:53 AM 84.9 °F 46.0 °F 26% 30.01 in 10.0 mi Calm Calm - N/A   Clear
12:53 PM 88.0 °F 44.1 °F 22% 29.98 in 10.0 mi Calm Calm - N/A   Clear
1:53 PM 91.9 °F 44.1 °F 19% 29.94 in 10.0 mi WSW 10.4 mph - N/A   Clear
2:53 PM 95.0 °F 39.9 °F 15% 29.91 in 10.0 mi WSW 15.0 mph - N/A   Clear
3:53 PM 98.1 °F 37.9 °F 12% 29.88 in 10.0 mi WSW 12.7 mph 24.2 mph N/A   Clear
4:53 PM 93.9 °F 36.0 °F 13% 29.88 in 10.0 mi WSW 16.1 mph - N/A   Clear
5:53 PM 91.0 °F 36.0 °F 14% 29.89 in 10.0 mi West 19.6 mph 28.8 mph N/A   Clear
6:53 PM 90.0 °F 37.0 °F 15% 29.89 in 10.0 mi West 16.1 mph 24.2 mph N/A   Clear
7:53 PM 88.0 °F 37.0 °F 16% 29.91 in 10.0 mi West 12.7 mph - N/A   Mostly Cloudy
8:53 PM 88.0 °F 36.0 °F 16% 29.91 in 10.0 mi SSW 5.8 mph - N/A   Clear
9:53 PM 86.0 °F 35.1 °F 16% 29.92 in 10.0 mi SE 4.6 mph - N/A   Clear
10:53 PM 82.9 °F 35.1 °F 18% 29.94 in 10.0 mi Calm Calm - N/A   Clear
11:53 PM 80.1 °F 50.0 °F 35% 29.98 in 10.0 mi SSE 11.5 mph 24.2 mph N/A   Clear